CW1621 Weather Reports


Display with metric or nautical units.
time (UTC)temp
F
wind
direction
speed
MPH
gust
MPH
rain 1hr
in
rain 24hr
in
rain mn
in
humidity
%
barometer
mb
20260510055603 50 190 6.0 7.0 0.00 0.00 0.00 70 1021.0
20260510054603 50 190 5.0 6.0 0.00 0.00 0.00 71 1021.0
20260510054104 49 190 6.0 8.0 0.00 0.00 0.00 72 1021.0
20260510053604 49 190 7.0 8.0 0.00 0.00 0.00 73 1021.1
20260510053105 50 192 7.0 8.0 0.00 0.00 0.00 71 1021.1
20260510052603 51 187 5.0 6.0 0.00 0.00 0.00 70 1020.8
20260510052104 51 179 6.0 6.0 0.00 0.00 0.00 70 1020.8
20260510050104 50 189 7.0 7.0 0.00 0.00 0.00 73 1022.0
20260510045603 49 190 4.0 7.0 0.00 0.00 0.00 72 1022.1
20260510045103 50 193 1.0 6.0 0.00 0.00 0.00 70 1022.0
20260510044103 50 193 5.0 6.0 0.00 0.00 0.00 73 1022.1
20260510043603 50 191 3.0 5.0 0.00 0.00 0.00 73 1022.1
20260510043104 51 110 2.0 3.0 0.00 0.00 0.00 73 1021.9
20260510042604 52 110 2.0 3.0 0.00 0.00 0.00 69 1021.9
20260510042103 53 110 1.0 2.0 0.00 0.00 0.00 69 1021.7
20260510041603 53 110 1.0 3.0 0.00 0.00 0.00 68 1021.7
20260510041104 54 110 2.0 5.0 0.00 0.00 0.00 65 1021.6
20260510040604 54 89 2.0 3.0 0.00 0.00 0.00 65 1021.6
20260510040103 55 71 2.0 3.0 0.00 0.00 0.00 64 1021.5
20260510035604 55 71 1.0 2.0 0.00 0.00 0.00 65 1021.3
20260510035104 55 71 2.0 3.0 0.00 0.00 0.00 67 1021.3
20260510034604 56 54 1.0 3.0 0.00 0.00 0.00 68 1021.1
20260510034104 57 54 0.0 0.0 0.00 0.00 0.00 64 1021.2
20260510033603 57 54 0.0 0.0 0.00 0.00 0.00 59 1021.3
20260510033104 58 54 0.0 1.0 0.00 0.00 0.00 59 1021.0
20260510032603 58 54 1.0 2.0 0.00 0.00 0.00 59 1020.9
20260510031104 58 54 2.0 3.0 0.00 0.00 0.00 60 1020.7
20260510030103 59 37 2.0 3.0 0.00 0.00 0.00 58 1020.7
20260510025103 60 37 1.0 2.0 0.00 0.00 0.00 56 1020.7
20260510024604 60 37 1.0 2.0 0.00 0.00 0.00 54 1020.8
20260510024103 60 37 0.0 1.0 0.00 0.00 0.00 55 1020.8
20260510023604 61 37 1.0 2.0 0.00 0.00 0.00 55 1020.5
20260510023103 61 37 1.0 2.0 0.00 0.00 0.00 55 1020.4
20260510022603 61 37 3.0 3.0 0.00 0.00 0.00 55 1020.4
20260510022104 62 22 3.0 3.0 0.00 0.00 0.00 53 1020.5
20260510021603 62 22 2.0 3.0 0.00 0.00 0.00 52 1020.6
20260510021103 63 22 2.0 3.0 0.00 0.00 0.00 52 1020.2
20260510015603 63 348 0.0 3.0 0.00 0.00 0.00 53 1020.3
20260510015104 64 342 2.0 5.0 0.00 0.00 0.00 52 1020.3
20260510014603 64 347 2.0 3.0 0.00 0.00 0.00 52 1020.3
20260510014103 64 307 2.0 5.0 0.00 0.00 0.00 50 1020.3
20260510013603 64 355 0.0 2.0 0.00 0.00 0.00 50 1020.3
20260510013103 64 355 1.0 3.0 0.00 0.00 0.00 49 1020.4
20260510012603 65 5 1.0 5.0 0.00 0.00 0.00 49 1020.1
20260510011603 65 3 1.0 5.0 0.00 0.00 0.00 48 1020.2
20260510011104 65 308 3.0 7.0 0.00 0.00 0.00 47 1021.0
20260510010603 65 25 2.0 7.0 0.00 0.00 0.00 47 1021.3
20260510010104 66 17 2.0 5.0 0.00 0.00 0.00 47 1021.0
20260510005603 66 355 3.0 5.0 0.00 0.00 0.00 46 1021.0
20260510005103 67 14 2.0 3.0 0.00 0.00 0.00 46 1021.0
20260510004603 66 340 2.0 5.0 0.00 0.00 0.00 46 1021.0
20260510004103 66 355 2.0 5.0 0.00 0.00 0.00 46 1020.9
20260510003603 66 344 3.0 5.0 0.00 0.00 0.00 44 1021.1
20260510003103 66 307 1.0 5.0 0.00 0.00 0.00 45 1021.2
20260510002603 67 323 3.0 7.0 0.00 0.00 0.00 45 1021.1
20260510002103 67 329 1.0 6.0 0.00 0.00 0.00 45 1021.1
20260510001604 67 349 3.0 7.0 0.00 0.00 0.00 42 1021.1
20260510001104 67 336 2.0 5.0 0.00 0.00 0.00 44 1021.0
20260510000603 67 2 3.0 7.0 0.00 0.00 0.00 41 1021.0
20260510000103 68 352 2.0 7.0 0.00 0.00 0.00 42 1020.9
20260509235604 68 323 3.0 6.0 0.00 0.00 0.00 39 1020.9
20260509235104 67 342 3.0 7.0 0.00 0.00 0.00 40 1021.0
20260509234103 67 331 3.0 10.0 0.00 0.00 0.00 41 1021.0
20260509233603 67 311 2.0 9.0 0.00 0.00 0.00 41 1021.0
20260509233104 68 353 5.0 10.0 0.00 0.00 0.00 39 1021.0
20260509232604 68 346 3.0 5.0 0.00 0.00 0.00 39 1021.0
20260509232103 68 316 2.0 9.0 0.00 0.00 0.00 38 1021.0
20260509231604 68 336 3.0 9.0 0.00 0.00 0.00 38 1021.0
20260509231104 68 0 2.0 6.0 0.00 0.00 0.00 38 1021.0
20260509230603 68 310 2.0 10.0 0.00 0.00 0.00 40 1020.9
20260509230103 68 346 1.0 6.0 0.00 0.00 0.00 41 1020.9
20260509225604 67 8 3.0 9.0 0.00 0.00 0.00 42 1021.1
20260509224103 68 353 3.0 7.0 0.00 0.00 0.00 40 1021.0
20260509223104 67 282 3.0 5.0 0.00 0.00 0.00 42 1021.3
20260509222103 66 335 2.0 6.0 0.00 0.00 0.00 42 1021.4
20260509221604 67 291 4.0 7.0 0.00 0.00 0.00 40 1021.4
20260509221103 67 329 2.0 7.0 0.00 0.00 0.00 43 1021.5
20260509220604 66 310 3.0 7.0 0.00 0.00 0.00 43 1021.7
20260509220103 66 324 2.0 7.0 0.00 0.00 0.00 44 1021.7
20260509215603 64 291 2.0 3.0 0.00 0.00 0.00 43 1022.0
20260509215103 64 189 3.0 6.0 0.00 0.00 0.00 41 1022.2
20260509214604 64 153 4.0 10.0 0.00 0.00 0.00 43 1022.1
20260509214104 63 148 2.0 3.0 0.00 0.00 0.00 43 1022.5
20260509213103 64 199 3.0 10.0 0.00 0.00 0.00 43 1022.3
20260509212103 64 236 3.0 12.0 0.00 0.00 0.00 41 1022.5
20260509211604 65 30 3.0 6.0 0.00 0.00 0.00 44 1022.5
20260509211103 64 18 3.0 9.0 0.00 0.00 0.00 46 1022.4
20260509210603 63 24 4.0 10.0 0.00 0.00 0.00 47 1022.1
20260509210103 62 66 1.0 6.0 0.00 0.00 0.00 48 1022.4
20260509205104 63 311 4.0 10.0 0.00 0.00 0.00 48 1022.3
20260509203603 63 200 2.0 5.0 0.00 0.00 0.00 48 1022.3
20260509203103 64 297 3.0 6.0 0.00 0.00 0.00 48 1022.3
20260509202604 64 23 3.0 10.0 0.00 0.00 0.00 50 1022.3
20260509202103 64 33 2.0 10.0 0.00 0.00 0.00 48 1022.4
20260509201103 62 24 3.0 6.0 0.00 0.00 0.00 49 1022.6
20260509200604 62 52 3.0 6.0 0.00 0.00 0.00 48 1022.3
20260509195604 64 337 3.0 7.0 0.00 0.00 0.00 47 1022.1
20260509195104 64 59 2.0 5.0 0.00 0.00 0.00 52 1022.1
20260509194604 63 350 4.0 7.0 0.00 0.00 0.00 50 1022.4
20260509193604 62 322 3.0 6.0 0.00 0.00 0.00 53 1022.6
20260509192604 61 32 4.0 9.0 0.00 0.00 0.00 53 1023.1
20260509192104 62 322 5.0 7.0 0.00 0.00 0.00 51 1022.9
20260509191103 62 320 4.0 7.0 0.00 0.00 0.00 52 1022.9
20260509190603 62 46 3.0 7.0 0.00 0.00 0.00 50 1022.9
20260509190104 62 32 2.0 5.0 0.00 0.00 0.00 53 1022.9
20260509185604 62 311 3.0 6.0 0.00 0.00 0.00 51 1022.9
20260509185104 62 312 3.0 6.0 0.00 0.00 0.00 52 1022.9
20260509184604 61 339 2.0 6.0 0.00 0.00 0.00 54 1022.8
20260509184103 61 317 3.0 8.0 0.00 0.00 0.00 52 1022.8
20260509183604 61 3 2.0 7.0 0.00 0.00 0.00 57 1022.8
20260509183104 62 60 3.0 10.0 0.00 0.00 0.00 50 1022.8
20260509182104 62 313 2.0 5.0 0.00 0.00 0.00 54 1022.8
20260509181604 61 27 1.0 5.0 0.00 0.00 0.00 54 1022.8
20260509181103 61 33 4.0 10.0 0.00 0.00 0.00 51 1022.9
20260509180603 60 319 3.0 9.0 0.00 0.00 0.00 54 1022.9
20260509180104 60 336 2.0 9.0 0.00 0.00 0.00 53 1023.0
20260509175604 59 325 3.0 12.0 0.00 0.00 0.00 52 1022.9
20260509175104 59 314 3.0 8.0 0.00 0.00 0.00 54 1022.9
20260509174604 58 2 3.0 6.0 0.00 0.00 0.00 54 1023.1
20260509174104 58 337 4.0 7.0 0.00 0.00 0.00 55 1023.1
20260509173604 58 288 3.0 5.0 0.00 0.00 0.00 54 1023.1
20260509173104 57 285 3.0 6.0 0.00 0.00 0.00 55 1023.1
20260509172103 57 266 5.0 9.0 0.00 0.00 0.00 53 1023.1
20260509171604 56 321 1.0 5.0 0.00 0.00 0.00 54 1023.4
20260509171104 55 292 5.0 7.0 0.00 0.00 0.00 54 1023.4
20260509170603 55 263 5.0 7.0 0.00 0.00 0.00 53 1023.5
20260509165103 55 279 9.0 12.0 0.00 0.00 0.00 55 1023.5
20260509164603 55 268 6.0 12.0 0.00 0.00 0.00 55 1023.5
20260509164103 55 296 5.0 10.0 0.00 0.00 0.00 57 1023.5
20260509163104 56 280 7.0 12.0 0.00 0.00 0.00 54 1023.3
20260509162604 55 309 4.0 9.0 0.00 0.00 0.00 57 1023.6
20260509162104 55 310 5.0 8.0 0.00 0.00 0.00 54 1023.6
20260509161603 54 243 1.0 7.0 0.00 0.00 0.00 57 1023.6
20260509161104 54 265 7.0 10.0 0.00 0.00 0.00 56 1023.5
20260509160604 54 251 7.0 10.0 0.00 0.00 0.00 56 1023.5
20260509160104 54 282 5.0 6.0 0.00 0.00 0.00 58 1023.5
20260509155604 54 272 6.0 10.0 0.00 0.00 0.00 57 1023.4
20260509155103 54 250 9.0 12.0 0.00 0.00 0.00 56 1023.5
20260509154603 54 270 6.0 12.0 0.00 0.00 0.00 57 1023.4
20260509154104 54 262 2.0 7.0 0.00 0.00 0.00 55 1023.3
20260509153603 54 276 5.0 10.0 0.00 0.00 0.00 57 1023.3
20260509153104 55 269 2.0 10.0 0.00 0.00 0.00 57 1023.3
20260509152103 54 61 1.0 3.0 0.00 0.00 0.00 60 1023.2
20260509151603 54 61 2.0 3.0 0.00 0.00 0.00 60 1023.2
20260509151103 53 50 2.0 3.0 0.00 0.00 0.00 62 1023.3
20260509150604 52 104 2.0 5.0 0.00 0.00 0.00 60 1023.4
20260509150103 53 78 3.0 6.0 0.00 0.00 0.00 60 1023.3
20260509145605 54 55 3.0 3.0 0.00 0.00 0.00 60 1023.2
20260509144604 54 37 2.0 3.0 0.00 0.00 0.00 58 1023.2
20260509144103 54 37 2.0 3.0 0.00 0.00 0.00 62 1023.1
20260509143604 54 39 3.0 5.0 0.00 0.00 0.00 58 1023.2
20260509143103 54 31 1.0 5.0 0.00 0.00 0.00 59 1023.2
20260509142603 54 29 2.0 3.0 0.00 0.00 0.00 58 1023.1
20260509142103 53 17 2.0 3.0 0.00 0.00 0.00 60 1023.1
20260509141604 53 15 3.0 5.0 0.00 0.00 0.00 58 1023.1
20260509141104 53 346 2.0 3.0 0.00 0.00 0.00 60 1022.3
20260509140103 52 344 1.0 3.0 0.00 0.00 0.00 60 1022.3
20260509135603 52 344 2.0 3.0 0.00 0.00 0.00 60 1022.2
20260509135103 51 264 0.0 0.0 0.00 0.00 0.00 64 1022.2
20260509134603 50 264 0.0 0.0 0.00 0.00 0.00 65 1022.4
20260509134104 49 264 0.0 1.0 0.00 0.00 0.00 66 1022.4
20260509133603 48 264 0.0 1.0 0.00 0.00 0.00 67 1022.5
20260509133103 47 264 1.0 1.0 0.00 0.00 0.00 68 1022.5
20260509132603 46 264 2.0 3.0 0.00 0.00 0.00 69 1022.7
20260509132103 46 264 3.0 5.0 0.00 0.00 0.00 69 1022.7
20260509131103 46 265 5.0 7.0 0.00 0.00 0.00 67 1022.5
20260509130603 47 269 6.0 7.0 0.00 0.00 0.00 66 1022.2
20260509130104 47 273 7.0 7.0 0.00 0.00 0.00 66 1022.2
20260509125603 46 276 6.0 6.0 0.00 0.00 0.00 66 1022.4
20260509125103 46 263 6.0 6.0 0.00 0.00 0.00 67 1022.5
20260509124603 45 263 5.0 6.0 0.00 0.00 0.00 67 1022.5
20260509124104 46 263 5.0 6.0 0.00 0.00 0.00 67 1022.5
20260509123604 45 263 5.0 6.0 0.00 0.00 0.00 67 1022.4
20260509123103 45 263 5.0 5.0 0.00 0.00 0.00 68 1022.3
20260509122603 45 263 3.0 3.0 0.00 0.00 0.00 68 1022.3
20260509122104 45 263 3.0 3.0 0.00 0.00 0.00 66 1022.2
20260509121603 46 263 3.0 3.0 0.00 0.00 0.00 66 1022.2
20260509121103 45 263 3.0 3.0 0.00 0.00 0.00 67 1022.1
20260509120604 44 263 3.0 3.0 0.00 0.00 0.00 68 1022.2
20260509115604 45 263 3.0 5.0 0.00 0.00 0.00 65 1021.9
20260509115103 46 263 4.0 5.0 0.00 0.00 0.00 66 1021.9
20260509114103 44 263 3.0 3.0 0.00 0.00 0.00 68 1022.2
20260509113604 44 263 4.0 5.0 0.00 0.00 0.00 68 1022.1
20260509113104 44 263 6.0 7.0 0.00 0.00 0.00 69 1022.0
20260509112603 42 262 5.0 7.0 0.00 0.00 0.00 69 1022.2
20260509112103 43 263 4.0 6.0 0.00 0.00 0.00 68 1021.9
20260509111104 46 262 3.0 3.0 0.00 0.00 0.00 63 1021.7
20260509110604 47 262 2.0 3.0 0.00 0.00 0.00 62 1021.7
20260509105603 46 262 0.0 0.0 0.00 0.00 0.00 63 1021.7
20260509105104 46 262 0.0 0.0 0.00 0.00 0.00 63 1021.6
20260509104604 45 262 0.0 0.0 0.00 0.00 0.00 63 1021.7
20260509104108 45 262 0.0 1.0 0.00 0.00 0.00 64 1021.8
20260509103103 44 262 0.0 0.0 0.00 0.00 0.00 65 1021.7
20260509102604 44 262 0.0 1.0 0.00 0.00 0.00 65 1021.7
20260509102103 44 262 1.0 3.0 0.00 0.00 0.00 66 1021.6
20260509101604 43 262 2.0 3.0 0.00 0.00 0.00 67 1021.7
20260509101104 44 262 2.0 3.0 0.00 0.00 0.00 67 1021.5
20260509100603 44 262 2.0 3.0 0.00 0.00 0.00 66 1021.4
20260509095603 44 262 3.0 3.0 0.00 0.00 0.00 66 1021.3
20260509095104 44 262 2.0 3.0 0.00 0.00 0.00 65 1021.2
20260509094603 44 262 3.0 5.0 0.00 0.00 0.00 65 1021.1
20260509094104 46 262 3.0 5.0 0.00 0.00 0.00 62 1020.9
20260509093604 47 262 4.0 5.0 0.00 0.00 0.00 60 1020.6
20260509093103 48 263 4.0 7.0 0.00 0.00 0.00 58 1020.6
20260509092604 48 263 6.0 9.0 0.00 0.00 0.00 57 1020.6
20260509092104 48 272 6.0 12.0 0.00 0.00 0.00 57 1020.6
20260509091603 49 266 6.0 7.0 0.00 0.00 0.00 57 1020.3
20260509091104 49 269 6.0 10.0 0.00 0.00 0.00 56 1020.2
20260509090603 50 268 7.0 12.0 0.00 0.00 0.00 55 1020.2
20260509090104 50 272 9.0 14.0 0.00 0.00 0.00 54 1020.2
20260509085604 50 280 11.0 14.0 0.00 0.00 0.00 53 1020.1
20260509085104 50 283 9.0 12.0 0.00 0.00 0.00 53 1020.0
20260509084604 51 285 9.0 16.0 0.00 0.00 0.00 52 1019.7
20260509083104 51 286 10.0 13.0 0.00 0.00 0.00 52 1019.6
20260509082603 51 287 11.0 20.0 0.00 0.00 0.00 51 1019.5
20260509082105 51 293 10.0 16.0 0.00 0.00 0.00 51 1019.6
20260509081604 52 287 12.0 15.0 0.00 0.00 0.00 51 1019.6
20260509080604 52 289 12.0 20.0 0.00 0.00 0.00 50 1020.1
20260509080104 52 284 12.0 20.0 0.00 0.00 0.00 50 1020.0
20260509075104 52 286 13.0 17.0 0.00 0.00 0.00 50 1020.0
20260509074604 52 284 10.0 15.0 0.00 0.00 0.00 50 1020.0
20260509074104 53 285 10.0 15.0 0.00 0.00 0.00 50 1019.7
20260509073603 53 285 11.0 18.0 0.00 0.00 0.00 50 1019.6
20260509073103 53 284 11.0 17.0 0.00 0.00 0.00 50 1019.6
20260509072103 53 284 12.0 18.0 0.00 0.00 0.00 49 1019.4
20260509071603 52 281 10.0 15.0 0.00 0.00 0.00 50 1019.5
20260509071105 52 280 10.0 13.0 0.00 0.00 0.00 49 1019.5
20260509070603 52 283 9.0 13.0 0.00 0.00 0.00 49 1019.6
20260509070104 53 290 8.0 12.0 0.00 0.00 0.00 49 1019.6
20260509065604 53 288 9.0 12.0 0.00 0.00 0.00 48 1019.5
20260509065104 53 292 8.0 13.0 0.00 0.00 0.00 48 1019.3
20260509064603 54 287 8.0 12.0 0.00 0.00 0.00 48 1019.2
20260509063604 54 287 10.0 16.0 0.00 0.00 0.00 47 1019.2
20260509063103 54 290 12.0 17.0 0.00 0.00 0.00 46 1019.2
20260509062603 54 288 12.0 16.0 0.00 0.00 0.00 46 1019.2
20260509061104 55 290 10.0 16.0 0.00 0.00 0.00 45 1019.1
20260509060604 55 287 13.0 21.0 0.00 0.00 0.00 45 1019.0